FLOCK 4BE-15 (60491 NORAD) Tracking and Keplerian Element Data

This shows tracking and keplerian element data for the satellite.

Feedback or suggestion? Click here.




ElementValue
Catalog60491
NameFLOCK 4BE-15
Epoch Orbit864
Epoch Day286.76791782
Epoch Year2024
RAAN1.397
Inclination97.4328
Eccentricity0.000416
Argument of Perigee279.1331
Mean Anonmoly80.9433
Mean Motion15.19640733
Decay Rate0.00021691
L11 60491U 24149Z 24286.76791782 .00021691 00000+0 10184-2 0 9993
L22 60491 97.4328 1.3970 0004160 279.1331 80.9433 15.19640733 8646



Live tracking and technical data element details for FLOCK 4BE-15 (NORAD 60491). FLOCK 4BE-15 can be tracked NOW for your location showing map with azimuth and elevation plus other details from your city location.







IsCatalogInMostPopularTable: catalog: 60491, numindb: 7
Update: records affected: 1



GetName: 60491 FLOCK 4BE-15

Hit Count: updated at: Wed, 04 Dec 2024 19:34:43 GMT